Terminal Aerodrome Forecast
Issued by NWS Buffalo, NY

Home | Current Version | Previous Version | Text Only | Print | Product List | Glossary On
Versions: 1 2 3 4 5 6 7 8 9 10 11 12 13 14 15 16 17 18 19 20 21 22 23 24 25 26 27 28 29
696
FTUS41 KBUF 121140
TAFBUF
TAF
KBUF 121140Z 1212/1312 19010KT 4SM -SHSN SCT015 OVC035
      TEMPO 1212/1214 1SM -SN OVC015
     FM121400 22013G20KT 1/4SM +SN BLSN OVC007
     FM121700 23017G25KT 1SM -SN BLSN OVC015
     FM122000 24017G26KT 1/4SM +SN BLSN OVC007
     FM130000 26013G20KT 3SM -SHSN OVC025
     FM130900 32013G20KT P6SM VCSH OVC035=

USA.gov is the U.S. government's official web portal to all federal, state and local government web resources and services.